Tracking 30970 objects as of 3-Jul-2025
HD Live streaming from Space Station
objects crossing your sky now

DELTA 1 DEB

Track DELTA 1 DEB now!
10-day predictions


NORAD ID: 10757
Int'l Code: 1976-077BE
Perigee: 1,498.9 km
Apogee: 1,874.2 km
Inclination: 101.9 °
Period: 120.0 minutes
Semi major axis: 8057 km
RCS: 0.0976 m2 (small)
Launch date: July 29, 1976
Source: United States (US)
Launch site: AIR FORCE WESTERN TEST RANGE (AFWTR)

Note: This is SATELLITE DEBRIS
Your satellite tracking list
COBE
Track 1 satellite(s)




NASA's NSSDC Master Catalog

Two Line Element Set (TLE):
1 10757U 76077BE  25183.13207626  .00000354  00000-0  44959-2 0  9998
2 10757 101.9393 256.4789 0232892 289.3630  97.2621 12.00315679141687
Source of the keplerian elements: AFSPC